Regional Weather Roundup
Issued by NWS

Home | Current Version | Previous Version | Graphics & Text | Print | Product List | Glossary Off
Versions: 1 2 3 4 5 6 7 8 9 10 11 12 13 14 15 16 17 18 19 20 21 22 23 24 25 26 27 28 29 30 31 32 33 34 35 36 37 38 39 40 41 42 43 44 45 46 47 48 49 50

000
ASUS43 KTOP 020359
RWRKS

WEATHER ROUNDUP FOR KANSAS
NATIONAL WEATHER SERVICE GOODLAND KS
1100 PM CDT WED JUL 01 2015

NOTE:  "FAIR" INDICATES FEW OR NO CLOUDS BELOW 12,000 FEET WITH NO
SIGNIFICANT WEATHER AND/OR OBSTRUCTIONS TO VISIBILITY.

KSZ001>006-013>018-027>032-041>047-020500-
NORTHWEST KANSAS

CITY           SKY/WX    TMP DP  RH WIND       PRES   REMARKS
GOODLAND       CLOUDY    72  60  66 W16       30.05R
HAYS           CLOUDY    79  61  53 NE6       29.91R
HILL CITY      CLOUDY    79  58  48 NE5       29.93R
RUSSELL        MOCLDY    78  66  66 NE3       29.88R
$$

KSZ061>065-074>080-084>089-020500-
SOUTHWEST KANSAS

CITY           SKY/WX    TMP DP  RH WIND       PRES   REMARKS
DODGE CITY     PTCLDY    77  57  50 SE5       29.94R
ELKHART          N/A     81  55  40 E8          N/A
GARDEN CITY    MOCLDY    80  56  43 E8        29.96R
GREAT BEND     MOCLDY    79  64  61 N6        29.90R
LIBERAL        CLOUDY    84  57  39 E13       29.98R
$$

KSZ066>073-081>083-090>101-020500-
SOUTHEAST KANSAS

CITY           SKY/WX    TMP DP  RH WIND       PRES   REMARKS
CHANUTE        CLEAR     84  71  65 SW18G24   29.77S
COFFEYVILLE    PTCLDY    84  73  69 S15G25    29.78F
HUTCHINSON     PTCLDY    79  62  56 N8        29.85R
MEDICINE LODGE   N/A     85  60  42 NE3       29.86R
NEWTON         PTCLDY    75  66  73 N7        29.86R
PARSONS        CLEAR     84  73  69 SW10      29.79F
WICHITA INTL   PTCLDY    81  66  60 CALM      29.82R
WICHITA JABRA  PTCLDY    80  67  64 SW7       29.82R
WINFIELD       CLEAR     83  69  62 S10       29.82R
$$

KSZ007>012-019>026-033>040-048>060-102>105-020500-
NORTHEAST KANSAS

CITY           SKY/WX    TMP DP  RH WIND       PRES   REMARKS
CONCORDIA      PTCLDY    77  70  79 E3        29.87R
EMPORIA        CLEAR     78  72  81 N7        29.79R
LAWRENCE       MOCLDY    79  74  84 NE9       29.81R
MANHATTAN      CLEAR     80  74  81 NE12      29.83R
OLATHE IND     CLOUDY    76  67  73 NE13G18   29.82R
OLATHE EXE     CLOUDY    74  68  81 NE10      29.81R
SALINA         PTCLDY    85  68  56 NE8       29.84R
TOPEKA BILLARD CLEAR     79  75  87 NE6       29.82R
TOPEKA FORBES  MOCLDY    80  74  81 NE9       29.81R
$$


USA.gov is the U.S. government's official web portal to all federal, state and local government web resources and services.